User: anonymous   Login
Location: Kampung Segan
(3.1399°N, 113.1002°E)
Time: 20:47:20
(UTC+00:00)
Language:

Nadezhda 1 Rocket - Orbit

View from above orbital plane
View from above orbital plane
View from above satellite
View from above satellite

Ground track
Ground track

The orbit data is extracted from the following two-line orbital elements,

1 20104U 89050B   24276.29684688  .00000292  00000-0  27673-3 0  9992
2 20104  82.9610 354.2631 0042150 282.0079  77.6356 13.77501281771126
Epoch (UTC): 02 October 2024 07:07:27
Eccentricity: 0.0042150
inclination: 82.9610°
perigee height: 942 km
apogee height: 1004 km
right ascension of ascending node: 354.2631°
argument of perigee: 282.0079°
revolutions per day: 13.77501281
mean anomaly at epoch: 77.6356°
orbit number at epoch: 77112

The dashed part of the orbit path shows where the satellite is in the earth's shadow,  

DLR